TimeEDT,TemperatureF,Dew PointF,Humidity,Sea Level PressureIn,VisibilityMPH,Wind Direction,Wind SpeedMPH,Gust SpeedMPH,PrecipitationIn,Events,Conditions,WindDirDegrees,DateUTC
12:53 AM,27.0,24.1,89,29.90,10.0,Calm,Calm,-,N/A,,Clear,0,2013-04-11 04:53:00
1:53 AM,28.0,23.0,81,29.89,10.0,NNE,5.8,-,N/A,,Clear,30,2013-04-11 05:53:00
2:53 AM,28.0,21.0,75,29.88,10.0,Calm,Calm,-,N/A,,Clear,0,2013-04-11 06:53:00
3:53 AM,30.0,19.9,66,29.91,10.0,NW,4.6,-,N/A,,Overcast,320,2013-04-11 07:53:00
4:53 AM,30.9,19.0,61,29.91,10.0,North,8.1,-,N/A,,Overcast,350,2013-04-11 08:53:00
5:53 AM,30.0,10.9,45,29.92,10.0,North,10.4,19.6,N/A,,Mostly Cloudy,360,2013-04-11 09:53:00
6:53 AM,28.9,10.9,47,29.96,10.0,North,12.7,-,N/A,,Clear,360,2013-04-11 10:53:00
7:53 AM,30.0,10.0,43,29.98,10.0,NNW,13.8,24.2,N/A,,Clear,340,2013-04-11 11:53:00
8:53 AM,32.0,10.0,40,29.98,10.0,NNW,17.3,20.7,N/A,,Clear,340,2013-04-11 12:53:00
9:53 AM,33.1,8.1,35,29.99,10.0,North,15.0,24.2,N/A,,Clear,350,2013-04-11 13:53:00
10:53 AM,34.0,8.1,34,30.00,10.0,NNW,13.8,23.0,N/A,,Clear,330,2013-04-11 14:53:00
12:53 PM,37.4,10.4,33,29.97,10.0,NNW,16.1,24.2,N/A,,Unknown,330,2013-04-11 16:53:00
1:53 PM,37.9,7.0,28,30.01,10.0,WNW,15.0,24.2,N/A,,Clear,290,2013-04-11 17:53:00
2:53 PM,39.2,8.6,28,29.99,10.0,NW,13.8,24.2,N/A,,Clear,320,2013-04-11 18:53:00
3:53 PM,39.0,8.1,28,30.01,10.0,NNW,18.4,24.2,N/A,,Clear,340,2013-04-11 19:53:00
4:53 PM,39.0,7.0,27,30.02,10.0,NW,11.5,25.3,N/A,,Clear,320,2013-04-11 20:53:00
5:53 PM,37.9,7.0,28,30.06,10.0,NNW,11.5,18.4,N/A,,Clear,340,2013-04-11 21:53:00
6:53 PM,35.1,9.0,34,30.09,10.0,NNW,9.2,-,N/A,,Clear,340,2013-04-11 22:53:00
7:53 PM,30.0,10.9,45,30.12,10.0,North,5.8,-,N/A,,Clear,10,2013-04-11 23:53:00
8:53 PM,30.0,10.9,45,30.14,10.0,NNW,5.8,-,N/A,,Clear,340,2013-04-12 00:53:00
9:53 PM,28.9,10.0,45,30.16,10.0,NNW,4.6,-,N/A,,Clear,340,2013-04-12 01:53:00
10:53 PM,27.0,10.9,51,30.17,10.0,North,4.6,-,N/A,,Clear,350,2013-04-12 02:53:00
11:53 PM,27.0,12.0,53,30.18,10.0,NNW,3.5,-,N/A,,Clear,340,2013-04-12 03:53:00